Simultaneous Nadir Overpasses (SNOs) Predictions

Prediction of SNOs between LANDSAT-8 and METOP-A Satellite Orbit:

Table of predicted SNOs for the next 14.0 days since TLE Epoch: 4/18/2020
Index Date (LANDSAT-8) Time (LANDSAT-8) Lat,Lon (LANDSAT-8) SZA (LANDSAT-8 ) Date (METOP-A) Time (METOP-A) Lat,Lon (METOP-A) SZA (METOP-A ) Distance(km) Time Diff (sec)
1 04/18/2020 07:55:26 81.49, 107.15 73.13 04/18/2020 07:55:23 81.49, 106.95 73.10 3.23 3
2 04/18/2020 08:44:53 -81.49, -85.29 106.90 04/18/2020 08:46:03 -81.48, -85.42 106.89 2.31 70
3 04/21/2020 02:40:14 -81.49, 5.86 107.82 04/21/2020 02:39:05 -81.49, 5.88 107.85 0.34 69
4 04/21/2020 03:29:40 81.49, 173.55 72.18 04/21/2020 03:29:45 81.49, 173.51 72.17 0.96 5
5 04/23/2020 22:14:27 -81.49, 72.27 108.75 04/23/2020 22:13:26 -81.49, 72.46 108.75 3.12 61
6 04/23/2020 23:03:53 81.49,-120.07 71.25 04/23/2020 23:04:06 81.48,-119.95 71.27 2.06 13
7 04/26/2020 17:48:41 -81.49, 138.65 109.65 04/26/2020 17:47:49 -81.49, 138.63 109.67 0.54 52
8 04/26/2020 18:38:07 81.49, -53.71 70.35 04/26/2020 18:38:29 81.49, -53.81 70.35 1.67 22
9 04/29/2020 13:22:55 -81.48,-154.99 110.52 04/29/2020 13:22:11 -81.49,-154.81 110.52 2.99 44




NCC Satellite Simultaneous Nadir Overpasses (SNOs) Prediction Service
